Washington, PA

12:11 AM EST on December 15, 2019 (GMT -0500)
Washington County

Weather History for KAFJ - October, 2019

Change the Weather History Date:

Sunday, October 20, 2019

  Actual Average Record
Temperature  
Mean Temperature 58 °F -  
Max Temperature 69 °F 57 °F 80 °F (2016)
Min Temperature 46 °F 37 °F 24 °F (2008)
Degree Days  
Heating Degree Days 8    
Growing Degree Days 8 (Base 50)    
Moisture  
Dew Point 48 °F    
Average Humidity 81    
Maximum Humidity 97    
Minimum Humidity 49    
Precipitation  
Precipitation 0.00 in - - ()
Sea Level Pressure  
Sea Level Pressure 29.94 in    
Wind  
Wind Speed 0 mph ()    
Max Wind Speed 5 mph    
Max Gust Speed -    
Visibility 10.0 miles    
Events      
Averages and records for this station are not official NWS values.
T = Trace of Precipitation, MM = Missing Value Source: Averaged Metar Reports

Daily Weather History Graph

Daily Weather History Graph

Search for Another Location

Airport or City:

Astronomy

Oct. 20, 2019 Rise Set
Actual Time 7:36 AM EDT 6:34 PM EDT
Civil Twilight 7:09 AM EDT 7:01 PM EDT
Nautical Twilight 6:37 AM EDT 7:33 PM EDT
Astronomical Twilight 6:06 AM EDT 8:04 PM EDT
Moon 11:41 PM EDT (10/20) 2:03 PM EDT (10/20)
Length of Visible Light 11h 52m
Length of Day
10h 57m
Waning Gibbous, 59% of the Moon is Illuminated
Oct 20
Waning Gibbous
Oct 21
Last Quarter
Oct 27
New
Nov 4
First Quarter
Nov 12
Full

Hourly Weather History & Observations

Time (EDT) Temp. Dew Point Humidity Pressure Visibility Wind Dir Wind Speed Gust Speed Precip Events Conditions
12:56 AM 46.0 °F 43.0 °F 89% 29.92 in 10.0 mi Calm Calm - N/A   Clear
1:56 AM 46.9 °F 45.0 °F 93% 29.90 in 10.0 mi Calm Calm - N/A   Mostly Cloudy
2:56 AM 46.9 °F 44.1 °F 90% 29.89 in 10.0 mi Calm Calm - N/A   Scattered Clouds
3:56 AM 46.9 °F 45.0 °F 93% 29.89 in 10.0 mi Calm Calm - N/A   Mostly Cloudy
4:56 AM 46.9 °F 46.0 °F 97% 29.89 in 10.0 mi Calm Calm - N/A   Mostly Cloudy
5:56 AM 46.9 °F 46.0 °F 97% 29.90 in 10.0 mi Calm Calm - N/A   Mostly Cloudy
6:56 AM 46.9 °F 46.0 °F 97% 29.91 in 10.0 mi Calm Calm - N/A   Clear
7:56 AM 46.9 °F 46.0 °F 97% 29.91 in 10.0 mi Calm Calm - N/A   Overcast
8:56 AM 48.9 °F 48.0 °F 97% 29.93 in 10.0 mi Calm Calm - N/A   Overcast
9:56 AM 54.0 °F 48.9 °F 83% 29.95 in 10.0 mi Calm Calm - N/A   Partly Cloudy
10:56 AM 59.0 °F 51.1 °F 75% 29.94 in 10.0 mi Calm Calm - N/A   Mostly Cloudy
11:56 AM 63.0 °F 51.1 °F 65% 29.93 in 10.0 mi East 4.6 mph - N/A   Overcast
12:56 PM 63.0 °F 51.1 °F 65% 29.93 in 10.0 mi Calm Calm - N/A   Mostly Cloudy
1:56 PM 66.0 °F 51.1 °F 59% 29.92 in 10.0 mi Calm Calm - N/A   Clear
2:56 PM 68.0 °F 50.0 °F 52% 29.91 in 10.0 mi Calm Calm - N/A   Clear
3:56 PM 69.1 °F 48.9 °F 49% 29.92 in 10.0 mi NNE 4.6 mph - N/A   Clear
4:56 PM 69.1 °F 48.9 °F 49% 29.93 in 10.0 mi Calm Calm - N/A   Clear
5:56 PM 66.0 °F 48.9 °F 54% 29.94 in 10.0 mi NNW 3.5 mph - N/A   Clear
6:56 PM 59.0 °F 50.0 °F 72% 29.96 in 10.0 mi Calm Calm - N/A   Clear
7:56 PM 54.0 °F 50.0 °F 86% 29.98 in 10.0 mi Calm Calm - N/A   Clear
8:56 PM 51.1 °F 48.9 °F 92% 30.00 in 10.0 mi Calm Calm - N/A   Clear
9:56 PM 50.0 °F 48.0 °F 93% 30.01 in 10.0 mi Calm Calm - N/A   Clear
10:56 PM 46.9 °F 46.0 °F 97% 30.03 in 10.0 mi Calm Calm - N/A   Clear
11:56 PM 46.9 °F 46.0 °F 97% 30.03 in 10.0 mi Calm Calm - N/A   Clear